Voltar ao catálogo

STARLINK-6074

AtivoComunicaçõesVLEO
NORAD 56553·PAYLOAD·🇺🇸 United States

Lançado May 14, 2023 de Cape Canaveral Space Force Station

Loading…

Próximas Passagens (próximas 24 horas)

TLE

AtualizadoSource: CelesTrak SupGP

Época: Sep 15, 2026, 02:18 UTC

1 56553C 23065BC  26258.09631944 -.00022654  00000+0 -82063-3 0  2589
2 56553  43.0015 233.7315 0000807 272.8221  11.3639 15.27586260    18

Acompanhe STARLINK-6074 em tempo real com AllMySat

Download on the App Store